Terug naar catalogus

PRAETORIAN SDA_517

ActiefPO
NORAD 100075·PAYLOAD·🇺🇸 United States

Gelanceerd Jul 16, 2026 vanaf Vandenberg Space Force Base

Loading…

Volgende Passages (komende 24 uur)

TLE

VersSource: Space-Track

Epoch: Sep 14, 2026, 17:43 UTC

1 A0075U 26163S   26257.73846211  .00000133  00000-0  10433-3 0  9995
2 A0075  81.4773 255.1614 0017528  56.3130 303.9696 13.86148230  8302

Volg PRAETORIAN SDA_517 in realtime met AllMySat

Download on the App Store